| time (UTC) | temp F | wind direction | speed MPH | gust MPH | rain 1hr in | rain 24hr in | rain mn in | humidity % | barometer mb |
| 20260506004004 | 66 | 234 | 2.0 | 6.0 | 0.00 | 0.35 | 0.10 | 44 | 1012.3 |
| 20260506003504 | 66 | 270 | 2.0 | 6.0 | 0.00 | 0.35 | 0.10 | 45 | 1012.3 |
| 20260506002505 | 66 | 270 | 2.0 | 6.0 | 0.00 | 0.36 | 0.10 | 45 | 1012.3 |
| 20260506002004 | 66 | 281 | 2.0 | 5.0 | 0.00 | 0.36 | 0.10 | 46 | 1012.3 |
| 20260506001504 | 66 | 280 | 2.0 | 5.0 | 0.00 | 0.37 | 0.10 | 46 | 1012.3 |
| 20260506001005 | 66 | 269 | 2.0 | 7.0 | 0.00 | 0.37 | 0.10 | 48 | 1012.4 |
| 20260506000505 | 66 | 262 | 2.0 | 5.0 | 0.00 | 0.37 | 0.10 | 47 | 1012.4 |
| 20260506000004 | 65 | 297 | 2.0 | 7.0 | 0.00 | 0.37 | 0.10 | 47 | 1012.3 |
| 20260505235504 | 65 | 220 | 2.0 | 7.0 | 0.00 | 0.37 | 0.10 | 50 | 1012.3 |
| 20260505235004 | 65 | 244 | 3.0 | 7.0 | 0.00 | 0.37 | 0.10 | 48 | 1012.3 |
| 20260505234504 | 65 | 254 | 2.0 | 10.0 | 0.00 | 0.37 | 0.10 | 50 | 1012.4 |
| 20260505234004 | 65 | 271 | 2.0 | 6.0 | 0.00 | 0.37 | 0.10 | 48 | 1012.4 |
| 20260505233004 | 65 | 248 | 3.0 | 6.0 | 0.00 | 0.37 | 0.10 | 49 | 1012.4 |
| 20260505231504 | 65 | 307 | 3.0 | 8.0 | 0.00 | 0.39 | 0.10 | 50 | 1012.6 |
| 20260505230504 | 65 | 297 | 3.0 | 6.0 | 0.00 | 0.42 | 0.10 | 51 | 1012.6 |
| 20260505230004 | 65 | 271 | 3.0 | 8.0 | 0.00 | 0.44 | 0.10 | 50 | 1012.6 |
| 20260505225504 | 65 | 272 | 3.0 | 7.0 | 0.00 | 0.46 | 0.10 | 51 | 1012.7 |
| 20260505225004 | 65 | 304 | 1.0 | 6.0 | 0.00 | 0.46 | 0.10 | 52 | 1012.7 |
| 20260505224504 | 65 | 284 | 2.0 | 5.0 | 0.00 | 0.46 | 0.10 | 51 | 1012.7 |
| 20260505224004 | 65 | 190 | 2.0 | 6.0 | 0.00 | 0.46 | 0.10 | 52 | 1012.9 |
| 20260505223504 | 65 | 297 | 3.0 | 6.0 | 0.00 | 0.46 | 0.10 | 52 | 1012.9 |
| 20260505223004 | 65 | 263 | 4.0 | 7.0 | 0.00 | 0.46 | 0.10 | 53 | 1013.0 |
| 20260505222504 | 65 | 245 | 2.0 | 7.0 | 0.00 | 0.46 | 0.10 | 53 | 1013.0 |
| 20260505222004 | 65 | 256 | 5.0 | 8.0 | 0.00 | 0.46 | 0.10 | 53 | 1013.0 |
| 20260505221504 | 64 | 170 | 4.0 | 8.0 | 0.00 | 0.46 | 0.10 | 51 | 1013.0 |
| 20260505221004 | 65 | 239 | 3.0 | 6.0 | 0.00 | 0.46 | 0.10 | 53 | 1013.1 |
| 20260505220504 | 65 | 223 | 5.0 | 8.0 | 0.00 | 0.46 | 0.10 | 55 | 1013.2 |
| 20260505220005 | 65 | 253 | 3.0 | 6.0 | 0.00 | 0.46 | 0.10 | 54 | 1013.3 |
| 20260505215504 | 65 | 195 | 5.0 | 8.0 | 0.00 | 0.46 | 0.10 | 54 | 1013.3 |
| 20260505215004 | 65 | 273 | 3.0 | 7.0 | 0.00 | 0.46 | 0.10 | 55 | 1013.5 |
| 20260505214504 | 65 | 159 | 6.0 | 12.0 | 0.00 | 0.46 | 0.10 | 53 | 1013.5 |
| 20260505214005 | 64 | 208 | 3.0 | 8.0 | 0.00 | 0.46 | 0.10 | 55 | 1013.5 |
| 20260505213504 | 64 | 207 | 5.0 | 9.0 | 0.00 | 0.46 | 0.10 | 58 | 1013.6 |
| 20260505213004 | 64 | 212 | 3.0 | 8.0 | 0.00 | 0.46 | 0.10 | 58 | 1013.6 |
| 20260505212505 | 63 | 281 | 2.0 | 7.0 | 0.00 | 0.46 | 0.10 | 57 | 1013.7 |
| 20260505212005 | 63 | 223 | 3.0 | 9.0 | 0.00 | 0.46 | 0.10 | 60 | 1013.8 |
| 20260505211504 | 64 | 240 | 1.0 | 8.0 | 0.00 | 0.46 | 0.10 | 59 | 1013.8 |
| 20260505211004 | 64 | 205 | 5.0 | 10.0 | 0.00 | 0.46 | 0.10 | 62 | 1013.8 |
| 20260505210504 | 63 | 229 | 3.0 | 9.0 | 0.00 | 0.46 | 0.10 | 60 | 1013.8 |
| 20260505210004 | 63 | 235 | 6.0 | 10.0 | 0.00 | 0.46 | 0.10 | 63 | 1013.8 |
| 20260505205504 | 62 | 256 | 3.0 | 7.0 | 0.00 | 0.46 | 0.10 | 64 | 1013.8 |
| 20260505205004 | 62 | 235 | 3.0 | 7.0 | 0.00 | 0.46 | 0.10 | 63 | 1013.8 |
| 20260505204504 | 61 | 258 | 5.0 | 8.0 | 0.00 | 0.46 | 0.10 | 63 | 1013.8 |
| 20260505203504 | 60 | 252 | 5.0 | 10.0 | 0.00 | 0.46 | 0.10 | 67 | 1013.7 |
| 20260505203005 | 59 | 256 | 3.0 | 8.0 | 0.00 | 0.47 | 0.10 | 69 | 1013.7 |
| 20260505202504 | 58 | 262 | 3.0 | 7.0 | 0.00 | 0.47 | 0.10 | 70 | 1013.6 |
| 20260505202004 | 58 | 300 | 4.0 | 8.0 | 0.00 | 0.47 | 0.10 | 69 | 1013.5 |
| 20260505201004 | 58 | 249 | 3.0 | 8.0 | 0.00 | 0.47 | 0.10 | 68 | 1013.7 |
| 20260505200504 | 59 | 220 | 5.0 | 9.0 | 0.00 | 0.47 | 0.10 | 70 | 1013.7 |
| 20260505200004 | 59 | 186 | 2.0 | 9.0 | 0.00 | 0.47 | 0.10 | 69 | 1013.8 |
| 20260505195004 | 59 | 229 | 2.0 | 5.0 | 0.00 | 0.48 | 0.10 | 70 | 1013.7 |
| 20260505194504 | 58 | 250 | 3.0 | 6.0 | 0.00 | 0.49 | 0.10 | 72 | 1013.7 |
| 20260505194005 | 58 | 153 | 1.0 | 5.0 | 0.00 | 0.50 | 0.10 | 71 | 1013.7 |
| 20260505193504 | 58 | 270 | 2.0 | 7.0 | 0.00 | 0.50 | 0.10 | 72 | 1013.7 |
| 20260505193005 | 57 | 244 | 2.0 | 6.0 | 0.00 | 0.51 | 0.10 | 72 | 1013.7 |
| 20260505192504 | 57 | 189 | 6.0 | 8.0 | 0.00 | 0.51 | 0.10 | 72 | 1013.6 |
| 20260505192004 | 57 | 225 | 1.0 | 6.0 | 0.00 | 0.52 | 0.10 | 74 | 1013.6 |
| 20260505191504 | 56 | 189 | 4.0 | 8.0 | 0.00 | 0.52 | 0.10 | 74 | 1013.7 |
| 20260505191004 | 56 | 231 | 2.0 | 6.0 | 0.00 | 0.52 | 0.10 | 75 | 1013.6 |
| 20260505190505 | 56 | 209 | 2.0 | 6.0 | 0.00 | 0.52 | 0.10 | 76 | 1013.6 |
| 20260505190005 | 55 | 235 | 1.0 | 5.0 | 0.00 | 0.52 | 0.10 | 78 | 1013.6 |
| 20260505185504 | 54 | 320 | 0.0 | 5.0 | 0.00 | 0.52 | 0.10 | 77 | 1013.6 |
| 20260505185004 | 54 | 257 | 2.0 | 6.0 | 0.00 | 0.52 | 0.10 | 77 | 1013.6 |
| 20260505184504 | 54 | 286 | 2.0 | 3.0 | 0.00 | 0.52 | 0.10 | 78 | 1013.6 |
| 20260505184005 | 54 | 252 | 3.0 | 5.0 | 0.00 | 0.52 | 0.10 | 76 | 1013.6 |
| 20260505183505 | 55 | 348 | 2.0 | 5.0 | 0.00 | 0.52 | 0.10 | 77 | 1013.7 |
| 20260505183005 | 55 | 267 | 2.0 | 5.0 | 0.00 | 0.52 | 0.10 | 77 | 1013.7 |
| 20260505182504 | 55 | 276 | 1.0 | 5.0 | 0.00 | 0.52 | 0.10 | 76 | 1013.7 |
| 20260505182004 | 55 | 164 | 0.0 | 1.0 | 0.00 | 0.52 | 0.10 | 76 | 1013.6 |
| 20260505181504 | 55 | 123 | 1.0 | 5.0 | 0.00 | 0.52 | 0.10 | 81 | 1013.6 |
| 20260505181004 | 55 | 311 | 3.0 | 5.0 | 0.00 | 0.52 | 0.10 | 77 | 1013.6 |
| 20260505180504 | 54 | 256 | 2.0 | 5.0 | 0.00 | 0.52 | 0.10 | 78 | 1013.6 |
| 20260505180004 | 54 | 264 | 2.0 | 5.0 | 0.00 | 0.52 | 0.10 | 79 | 1013.6 |
| 20260505175505 | 54 | 283 | 2.0 | 5.0 | 0.00 | 0.52 | 0.10 | 78 | 1013.6 |
| 20260505175005 | 53 | 277 | 2.0 | 5.0 | 0.00 | 0.52 | 0.10 | 81 | 1013.5 |
| 20260505174504 | 53 | 339 | 2.0 | 3.0 | 0.00 | 0.52 | 0.10 | 84 | 1013.4 |
| 20260505173004 | 51 | 311 | 1.0 | 3.0 | 0.00 | 0.52 | 0.10 | 85 | 1013.3 |
| 20260505172504 | 50 | 157 | 0.0 | 0.0 | 0.00 | 0.52 | 0.10 | 85 | 1013.2 |
| 20260505172005 | 49 | 237 | 0.0 | 1.0 | 0.00 | 0.52 | 0.10 | 84 | 1013.2 |
| 20260505171504 | 49 | 193 | 0.0 | 0.0 | 0.00 | 0.52 | 0.10 | 85 | 1013.2 |
| 20260505170504 | 48 | 311 | 1.0 | 2.0 | 0.00 | 0.52 | 0.10 | 87 | 1013.2 |
| 20260505170004 | 48 | 156 | 0.0 | 3.0 | 0.00 | 0.52 | 0.10 | 86 | 1013.2 |
| 20260505165504 | 48 | 196 | 2.0 | 2.0 | 0.00 | 0.52 | 0.10 | 88 | 1013.2 |
| 20260505165005 | 48 | 239 | 1.0 | 2.0 | 0.00 | 0.52 | 0.10 | 89 | 1013.1 |
| 20260505164504 | 47 | 148 | 0.0 | 0.0 | 0.00 | 0.52 | 0.10 | 90 | 1013.1 |
| 20260505164004 | 47 | 148 | 0.0 | 1.0 | 0.00 | 0.52 | 0.10 | 90 | 1013.2 |
| 20260505163504 | 47 | 251 | 2.0 | 5.0 | 0.00 | 0.52 | 0.10 | 91 | 1013.1 |
| 20260505162505 | 47 | 185 | 1.0 | 6.0 | 0.00 | 0.52 | 0.10 | 92 | 1013.0 |
| 20260505162004 | 47 | 217 | 0.0 | 3.0 | 0.00 | 0.52 | 0.10 | 93 | 1012.9 |
| 20260505161504 | 46 | 169 | 0.0 | 2.0 | 0.00 | 0.52 | 0.10 | 93 | 1012.9 |
| 20260505161005 | 46 | 193 | 0.0 | 2.0 | 0.00 | 0.52 | 0.10 | 93 | 1013.0 |
| 20260505160505 | 46 | 263 | 2.0 | 5.0 | 0.00 | 0.52 | 0.10 | 94 | 1012.9 |
| 20260505153004 | 46 | 223 | 1.0 | 2.0 | 0.00 | 0.52 | 0.10 | 95 | 1012.6 |
| 20260505152504 | 46 | 193 | 0.0 | 3.0 | 0.00 | 0.52 | 0.10 | 95 | 1012.6 |
| 20260505152004 | 46 | 220 | 1.0 | 6.0 | 0.00 | 0.52 | 0.10 | 95 | 1012.7 |
| 20260505151504 | 46 | 206 | 2.0 | 6.0 | 0.00 | 0.52 | 0.10 | 96 | 1012.6 |
| 20260505151004 | 47 | 237 | 2.0 | 6.0 | 0.00 | 0.52 | 0.10 | 96 | 1012.5 |
| 20260505150504 | 47 | 228 | 3.0 | 6.0 | 0.00 | 0.52 | 0.10 | 96 | 1012.5 |
| 20260505140504 | 46 | 246 | 0.0 | 0.0 | 0.00 | 0.52 | 0.10 | 96 | 1012.3 |
| 20260505124504 | 45 | 246 | 0.0 | 0.0 | 0.00 | 0.52 | 0.10 | 96 | 1011.4 |
| 20260505122504 | 45 | 246 | 0.0 | 0.0 | 0.00 | 0.52 | 0.10 | 96 | 1011.3 |
| 20260505122005 | 45 | 246 | 0.0 | 0.0 | 0.00 | 0.52 | 0.10 | 96 | 1011.4 |
| 20260505121504 | 45 | 246 | 0.0 | 0.0 | 0.00 | 0.52 | 0.10 | 96 | 1011.4 |
| 20260505121004 | 45 | 246 | 0.0 | 0.0 | 0.00 | 0.52 | 0.10 | 96 | 1011.4 |
| 20260505120504 | 45 | 246 | 0.0 | 0.0 | 0.00 | 0.52 | 0.10 | 96 | 1011.4 |
| 20260505120005 | 45 | 246 | 0.0 | 0.0 | 0.00 | 0.52 | 0.10 | 96 | 1011.3 |
| 20260505115504 | 45 | 246 | 0.0 | 0.0 | 0.01 | 0.52 | 0.10 | 96 | 1011.4 |
| 20260505115005 | 45 | 246 | 0.0 | 0.0 | 0.01 | 0.52 | 0.10 | 96 | 1011.4 |
| 20260505114004 | 45 | 246 | 0.0 | 0.0 | 0.01 | 0.52 | 0.10 | 96 | 1011.3 |
| 20260505113504 | 45 | 246 | 0.0 | 0.0 | 0.01 | 0.52 | 0.10 | 96 | 1011.2 |
| 20260505113004 | 45 | 246 | 0.0 | 0.0 | 0.01 | 0.52 | 0.10 | 96 | 1011.3 |
| 20260505111504 | 45 | 246 | 0.0 | 0.0 | 0.01 | 0.52 | 0.10 | 96 | 1011.2 |
| 20260505111005 | 45 | 246 | 0.0 | 0.0 | 0.01 | 0.52 | 0.10 | 96 | 1011.2 |
| 20260505110504 | 45 | 246 | 0.0 | 0.0 | 0.01 | 0.52 | 0.10 | 96 | 1011.3 |
| 20260505102005 | 45 | 246 | 0.0 | 0.0 | 0.00 | 0.51 | 0.09 | 96 | 1011.5 |
| 20260505101504 | 45 | 246 | 0.0 | 0.0 | 0.00 | 0.51 | 0.09 | 96 | 1011.5 |
| 20260505101004 | 45 | 246 | 0.0 | 0.0 | 0.00 | 0.51 | 0.09 | 96 | 1011.7 |
| 20260505100504 | 45 | 246 | 0.0 | 0.0 | 0.00 | 0.51 | 0.09 | 96 | 1011.6 |
| 20260505100004 | 45 | 246 | 0.0 | 0.0 | 0.00 | 0.51 | 0.09 | 96 | 1011.8 |
| 20260505095504 | 45 | 246 | 0.0 | 0.0 | 0.00 | 0.51 | 0.09 | 96 | 1011.8 |
| 20260505095004 | 45 | 246 | 0.0 | 0.0 | 0.00 | 0.51 | 0.09 | 96 | 1011.7 |
| 20260505094505 | 45 | 246 | 0.0 | 0.0 | 0.00 | 0.51 | 0.09 | 96 | 1011.8 |
| 20260505094004 | 45 | 246 | 0.0 | 0.0 | 0.00 | 0.51 | 0.09 | 96 | 1011.8 |
| 20260505093504 | 45 | 246 | 0.0 | 0.0 | 0.00 | 0.51 | 0.09 | 96 | 1011.8 |
| 20260505092005 | 45 | 246 | 0.0 | 0.0 | 0.00 | 0.51 | 0.09 | 96 | 1011.8 |
| 20260505091504 | 45 | 246 | 0.0 | 0.0 | 0.00 | 0.51 | 0.09 | 96 | 1012.0 |
| 20260505090504 | 45 | 315 | 0.0 | 0.0 | 0.00 | 0.51 | 0.09 | 96 | 1012.0 |
| 20260505090005 | 45 | 315 | 0.0 | 0.0 | 0.00 | 0.51 | 0.09 | 96 | 1012.0 |
| 20260505085005 | 45 | 315 | 0.0 | 0.0 | 0.00 | 0.51 | 0.09 | 96 | 1012.0 |
| 20260505084504 | 45 | 322 | 1.0 | 2.0 | 0.00 | 0.51 | 0.09 | 96 | 1012.0 |
| 20260505084004 | 45 | 0 | 1.0 | 3.0 | 0.01 | 0.51 | 0.09 | 96 | 1012.0 |
| 20260505083504 | 45 | 62 | 0.0 | 0.0 | 0.01 | 0.51 | 0.09 | 96 | 1012.0 |
| 20260505083005 | 45 | 62 | 0.0 | 0.0 | 0.02 | 0.51 | 0.09 | 96 | 1012.1 |
| 20260505082505 | 45 | 62 | 0.0 | 2.0 | 0.04 | 0.51 | 0.09 | 96 | 1012.3 |
| 20260505081004 | 45 | 172 | 3.0 | 5.0 | 0.06 | 0.51 | 0.09 | 96 | 1012.1 |
| 20260505080504 | 44 | 151 | 3.0 | 5.0 | 0.07 | 0.51 | 0.09 | 96 | 1012.0 |
| 20260505080004 | 45 | 140 | 3.0 | 5.0 | 0.09 | 0.51 | 0.09 | 96 | 1012.0 |
| 20260505075504 | 45 | 178 | 0.0 | 0.0 | 0.10 | 0.51 | 0.09 | 96 | 1011.8 |
| 20260505075004 | 44 | 178 | 0.0 | 0.0 | 0.11 | 0.51 | 0.09 | 96 | 1012.0 |
| 20260505074504 | 45 | 178 | 0.0 | 0.0 | 0.11 | 0.51 | 0.09 | 96 | 1012.0 |
| 20260505074004 | 44 | 178 | 0.0 | 0.0 | 0.10 | 0.50 | 0.08 | 96 | 1012.1 |
| 20260505073504 | 45 | 178 | 0.0 | 0.0 | 0.10 | 0.50 | 0.08 | 96 | 1012.4 |
| 20260505073004 | 45 | 178 | 0.0 | 0.0 | 0.09 | 0.49 | 0.07 | 96 | 1012.5 |
| 20260505072504 | 45 | 178 | 0.0 | 0.0 | 0.07 | 0.47 | 0.05 | 96 | 1012.6 |
| 20260505072004 | 45 | 178 | 0.0 | 0.0 | 0.07 | 0.47 | 0.05 | 96 | 1012.6 |
| 20260505071504 | 45 | 178 | 0.0 | 1.0 | 0.06 | 0.46 | 0.04 | 96 | 1012.5 |
| 20260505071005 | 45 | 239 | 2.0 | 5.0 | 0.05 | 0.45 | 0.03 | 96 | 1012.3 |
| 20260505070005 | 46 | 224 | 3.0 | 5.0 | 0.02 | 0.42 | 0.00 | 96 | 1012.2 |
| 20260505065504 | 46 | 179 | 0.0 | 2.0 | 0.02 | 0.42 | 0.42 | 96 | 1012.2 |
| 20260505065005 | 46 | 171 | 1.0 | 1.0 | 0.02 | 0.41 | 0.41 | 96 | 1012.0 |
| 20260505064504 | 46 | 6 | 0.0 | 0.0 | 0.01 | 0.40 | 0.40 | 96 | 1011.9 |
| 20260505064004 | 46 | 6 | 0.0 | 0.0 | 0.01 | 0.40 | 0.40 | 96 | 1011.9 |
| 20260505063504 | 46 | 6 | 0.0 | 0.0 | 0.01 | 0.40 | 0.40 | 96 | 1011.8 |
| 20260505063005 | 46 | 6 | 0.0 | 0.0 | 0.01 | 0.40 | 0.40 | 96 | 1011.8 |
| 20260505062505 | 46 | 6 | 0.0 | 0.0 | 0.01 | 0.40 | 0.40 | 96 | 1011.7 |
| 20260505062004 | 46 | 6 | 0.0 | 0.0 | 0.02 | 0.40 | 0.40 | 96 | 1011.5 |
| 20260505061004 | 46 | 6 | 0.0 | 0.0 | 0.02 | 0.40 | 0.40 | 96 | 1011.5 |
| 20260505060504 | 46 | 6 | 0.0 | 0.0 | 0.02 | 0.40 | 0.40 | 96 | 1011.5 |
| 20260505060004 | 46 | 6 | 0.0 | 0.0 | 0.02 | 0.40 | 0.40 | 96 | 1011.6 |
| 20260505055505 | 46 | 6 | 0.0 | 0.0 | 0.02 | 0.40 | 0.40 | 96 | 1011.7 |
| 20260505055005 | 46 | 6 | 0.0 | 0.0 | 0.01 | 0.39 | 0.39 | 96 | 1011.8 |
| 20260505054505 | 46 | 6 | 0.0 | 0.0 | 0.01 | 0.39 | 0.39 | 95 | 1011.7 |
| 20260505054005 | 46 | 6 | 0.0 | 0.0 | 0.01 | 0.39 | 0.39 | 95 | 1011.8 |
| 20260505053504 | 46 | 6 | 0.0 | 0.0 | 0.01 | 0.39 | 0.39 | 95 | 1012.0 |
| 20260505053004 | 46 | 6 | 0.0 | 0.0 | 0.01 | 0.39 | 0.39 | 95 | 1012.0 |
| 20260505052504 | 46 | 6 | 0.0 | 0.0 | 0.01 | 0.39 | 0.39 | 95 | 1012.0 |
| 20260505052004 | 46 | 6 | 0.0 | 0.0 | 0.00 | 0.38 | 0.38 | 95 | 1011.9 |
| 20260505051504 | 46 | 6 | 0.0 | 0.0 | 0.00 | 0.38 | 0.38 | 95 | 1011.9 |
| 20260505051005 | 46 | 6 | 0.0 | 0.0 | 0.00 | 0.38 | 0.38 | 95 | 1011.9 |
| 20260505041504 | 46 | 173 | 2.0 | 5.0 | 0.00 | 0.38 | 0.38 | 95 | 1011.4 |
| 20260505041005 | 46 | 181 | 1.0 | 3.0 | 0.00 | 0.38 | 0.38 | 95 | 1011.4 |
| 20260505040505 | 46 | 167 | 0.0 | 2.0 | 0.00 | 0.38 | 0.38 | 95 | 1011.3 |
| 20260505040005 | 46 | 165 | 0.0 | 0.0 | 0.01 | 0.38 | 0.38 | 95 | 1011.2 |
| 20260505035505 | 46 | 165 | 0.0 | 3.0 | 0.01 | 0.38 | 0.38 | 95 | 1011.1 |
| 20260505035005 | 46 | 172 | 2.0 | 5.0 | 0.01 | 0.38 | 0.38 | 95 | 1011.1 |
| 20260505034505 | 46 | 25 | 0.0 | 0.0 | 0.01 | 0.38 | 0.38 | 94 | 1011.1 |
| 20260505034004 | 46 | 25 | 0.0 | 2.0 | 0.01 | 0.38 | 0.38 | 94 | 1011.1 |
| 20260505033004 | 46 | 30 | 3.0 | 6.0 | 0.01 | 0.38 | 0.38 | 94 | 1011.4 |
| 20260505032005 | 46 | 348 | 0.0 | 3.0 | 0.01 | 0.38 | 0.38 | 94 | 1011.5 |
| 20260505031505 | 46 | 345 | 3.0 | 3.0 | 0.01 | 0.38 | 0.38 | 94 | 1011.7 |
| 20260505031004 | 46 | 19 | 2.0 | 3.0 | 0.01 | 0.38 | 0.38 | 94 | 1011.9 |
| 20260505030504 | 46 | 355 | 1.0 | 3.0 | 0.01 | 0.38 | 0.38 | 94 | 1011.9 |
| 20260505030004 | 46 | 354 | 0.0 | 0.0 | 0.00 | 0.37 | 0.37 | 94 | 1011.8 |
| 20260505025005 | 46 | 355 | 2.0 | 7.0 | 0.02 | 0.37 | 0.37 | 94 | 1011.4 |
| 20260505024504 | 46 | 357 | 1.0 | 6.0 | 0.04 | 0.37 | 0.37 | 94 | 1011.4 |
| 20260505024005 | 46 | 89 | 0.0 | 0.0 | 0.06 | 0.37 | 0.37 | 94 | 1011.2 |
| 20260505023504 | 46 | 89 | 0.0 | 0.0 | 0.08 | 0.37 | 0.37 | 94 | 1010.7 |
| 20260505023004 | 46 | 89 | 0.0 | 3.0 | 0.08 | 0.37 | 0.37 | 94 | 1010.7 |
| 20260505022005 | 46 | 172 | 6.0 | 8.0 | 0.09 | 0.37 | 0.37 | 95 | 1010.7 |
| 20260505021504 | 46 | 149 | 3.0 | 7.0 | 0.11 | 0.37 | 0.37 | 95 | 1010.7 |
| 20260505021004 | 46 | 148 | 6.0 | 10.0 | 0.13 | 0.37 | 0.37 | 95 | 1010.2 |
| 20260505020504 | 46 | 195 | 5.0 | 8.0 | 0.15 | 0.37 | 0.37 | 95 | 1009.6 |
| 20260505014504 | 46 | 110 | 0.0 | 2.0 | 0.15 | 0.33 | 0.33 | 94 | 1011.9 |
| 20260505014005 | 46 | 112 | 2.0 | 3.0 | 0.14 | 0.31 | 0.31 | 93 | 1012.0 |
| 20260505013504 | 46 | 86 | 2.0 | 3.0 | 0.12 | 0.29 | 0.29 | 93 | 1012.0 |
| 20260505013004 | 46 | 223 | 0.0 | 0.0 | 0.12 | 0.29 | 0.29 | 92 | 1012.0 |
| 20260505012504 | 46 | 223 | 0.0 | 0.0 | 0.12 | 0.28 | 0.28 | 92 | 1012.0 |
| 20260505012004 | 47 | 223 | 0.0 | 0.0 | 0.12 | 0.28 | 0.28 | 92 | 1012.0 |
| 20260505011505 | 47 | 223 | 0.0 | 0.0 | 0.11 | 0.26 | 0.26 | 92 | 1011.9 |
| 20260505011005 | 47 | 223 | 0.0 | 0.0 | 0.09 | 0.24 | 0.24 | 92 | 1012.1 |
| 20260505010505 | 48 | 223 | 0.0 | 0.0 | 0.07 | 0.22 | 0.22 | 92 | 1012.3 |
| 20260505010005 | 48 | 223 | 0.0 | 6.0 | 0.06 | 0.21 | 0.21 | 91 | 1012.3 |
| 20260505005505 | 48 | 176 | 4.0 | 7.0 | 0.04 | 0.19 | 0.19 | 91 | 1012.1 |
| 20260505004504 | 48 | 190 | 2.0 | 3.0 | 0.03 | 0.18 | 0.18 | 90 | 1011.8 |